カタログに戻る

SNAP-3 EDDIE

運用中科学VLEO
NORAD 40972·PAYLOAD·🇺🇸 United States

打ち上げ Oct 8, 2015 から Vandenberg Space Force Base

Loading…

次のパス (今後24時間)

TLE

最新Source: Space-Track

元期: Sep 14, 2026, 15:18 UTC

1 40972U 15058J   26257.63763440  .01862079  31921-2  15726-2 0  9990
2 40972  64.7305 137.3560 0015894 264.1488  95.7872 16.13796764133133

AllMySatでSNAP-3 EDDIEをリアルタイム追跡

Download on the App Store